Showing default

COSMOS 2144, 21300

Orbit data source: Space-Track

COSMOS 2144, 21300 is a payload satellite owned by UNKS RF (CIS) in LEO that was launched on Thu, 16 May 1991 UTC via a TSIKLON-3 launch vehicle from the Plesetsk Missile And Space Complex (PKMTR). Payload-class satellites include a variety of spacecraft equipped with specific instruments for various scientific and technological missions. These include communications satellites like Starlink; space stations such as the ISS; scientific satellites like the Hubble; Earth observation satellites from companies like Planet Labs, Umbra, and HawkEye 360; GPS; miniature CubeSats for education and research; and military/defense satellites.

Loading next visibility...
Identifier
21300, 1991-033B
Orbit
LEO
Country
Flag of CISCIS
Related business
Manufacturer
NPO PM
Mission
Defense Communications
Bus & Motor
STRELA-3, Unknown motor
Mass
225 kg wet, 225 kg dry
Launch date (UTC)
1991-05-16 (35 years ago)
Launch vehicle
TSIKLON-3
Launch site
Plesetsk Missile And Space Complex (PKMTR)
Object type
Payload
Rocket body
Debris
Shape & HBR
Cyl, 0.8 m
Radar Cross Section
1.257 m², Large (>1 m²)

Expand to show TLE details & history
Last TLE update: 2 days ago

TLE from 2 days ago
0 COSMOS 2144
1 21300U 91033B   26171.40611378  .00000036  00000-0  14217-3 0  9996
2 21300  82.5783 327.3249 0006085 104.3137 255.8630 12.62393121616865
Epoch: 2026-06-20T09:44Z
TLE epoch observation values (Epoch: 2026-06-20T09:44:48.230Z)
Latitude
-0.00004°
Longitude
-87.49726°
Altitude
1,416.973 km
Speed
7.152 km/s
True Right ascension
21h 49m 17s
True Declination
0° 00' 00"
Sunlit
Object was in daylight at epoch
Visualization orbit readout
Latitude
Unknown
Longitude
Unknown
Altitude
Unknown
Speed
Unknown
Apparent Right ascension
Unknown
Apparent Declination
Unknown
Sunlit
N/A
Visualization observer readout
Local Sidereal Time
00:51:08
Azimuth
Unknown
Elevation
Unknown
Doppler factor
Unknown
Orbital elements
Apogee altitude
1,415.142 km
Perigee altitude
1,405.664 km
Semi-major axis
7,788.54 km
Eccentricity
0.00061
Inclination
82.5783°
RAAN
327.3249°
Arg. of periapsis
104.3137°
True anomaly
255.7954°
Mean anomaly
255.863°
Eccentric anomaly
255.8292°
Mean motion
3.15761 °/min
Orbital period
114.01 mins
BSTAR
0.00014217
Loading maneuver chart data...
Computing Atmospheric mass density...
Loading historical data...
Loading historical data...
Loading historical data...
Loading historical data...
Loading historical data...
Loading historical data...
Loading historical data...

Documentation

Showing up to 5 results
|